User: anonymous   Login
Location: Bermeries
(50.2863°N, 3.7551°E)
Time: 13:38:22
(UTC+00:00)
Language:

SL-14 R/B - Orbit

View from above orbital plane
View from above orbital plane
View from above satellite
View from above satellite

Ground track
Ground track

The orbit data is extracted from the following two-line orbital elements,

1 33505U 09003B   24202.92582330  .00003402  00000-0  18452-3 0  9992
2 33505  82.3855 184.7206 0021143 281.1364  78.7490 15.14064800851898
Epoch (UTC): 20 July 2024 22:13:11
Eccentricity: 0.0021143
inclination: 82.3855°
perigee height: 509 km
apogee height: 538 km
right ascension of ascending node: 184.7206°
argument of perigee: 281.1364°
revolutions per day: 15.14064800
mean anomaly at epoch: 78.7490°
orbit number at epoch: 85189

The dashed part of the orbit path shows where the satellite is in the earth's shadow,  

DLR